Forside
METAR-TAF:

METAR-TAF

Lufthavne :

Lee's Summit Municipal Airport

Lee's Summit, Missouri, USA

Breddekreds: 38-57-35N, længdekreds: 094-22-18W, højde: 306 m

Aktuelle vejr

Denne rapport blev lavet for 33 minutter siden, kl. 17:53 UTC
Vind 14 kt fra sydøst med vindstød på up til 25 kt
Temperatur -3°C
Fugtighed 74%
Tryk 1020 hPa
Sigt: 16.1 km
skyfri

METAR: KLXT 211753Z AUTO 13014G25KT 10SM CLR M03/M07 A3011 RMK AO2 SLPNO T10331072 58032

Tid: 12:26 (18:26 UTC)


TAF: fraværende

Vejrobservationer og prognoser fra mere end 4000 lufthavne (METAR og TAF).

De gule og røde prikker repræsenterer de meteorologiske stationer.

Flyt musen over at se navnet på stationen.

Så klik over at se vejr observationer og prognoser.

At skifte det kort: Klik på de grønne knapper med et sort kors for at zoome ind; på den grønne knap med en bindestreg for at zoome ud; eller på de grønne pile for tilstødende kort.


METAR-TAF: